Temperature
14 14 15 15 16 16 17 20 22 23 24 25 24 24 24 24 24 23 21 20 20 20 20 20 19 18 17 17 17 17 17 17 17 17 17 16 16 16 16 16 15 15 15 15 15 14 14 14 14
14 14 15 16 15 16 18 20 21 23 24 24 23 24 24 24 24 23 21 20 20 20 19 19 18 17 17 17 17 17 17 17 17 16 16 16 16 16 15 15 15 15 15 15 14 14 14 14 14
13 14 15 16 16 17 19 22 22 23 23 23 23 23 23 23 23 22 21 20 20 19 19 18 18 17 17 16 16 16 17 16 16 16 16 16 15 15 15 15 14 14 14 14 14 14 14 14 14
13 14 15 15 16 18 20 21 22 22 23 22 22 22 23 23 22 21 21 20 19 19 18 18 17 17 16 16 16 16 16 16 16 16 16 15 15 15 15 14 14 14 14 14 14 14 14 14 14
13 14 14 15 16 18 20 21 22 21 21 22 22 21 22 22 21 21 20 19 19 18 18 17 17 17 16 16 16 16 16 16 16 15 15 15 15 15 14 14 14 14 14 13 13 14 14 14 13
13 15 14 15 17 19 20 21 21 20 21 21 21 21 21 21 21 20 19 19 18 18 17 17 17 16 16 16 16 16 16 15 15 15 15 15 14 14 14 14 14 13 13 13 13 13 13 13 13
13 14 14 15 16 18 19 20 20 19 19 20 20 19 20 20 20 19 19 18 18 17 17 17 16 16 16 16 16 16 15 15 15 15 15 15 14 14 14 13 13 13 13 12 12 13 13 13 13
13 13 14 15 16 17 19 19 19 18 18 18 19 18 19 19 18 18 17 17 17 17 17 16 16 16 16 16 15 15 15 15 15 15 15 14 14 14 13 13 13 13 12 12 12 12 12 12 13
12 12 13 14 15 16 18 17 17 17 17 17 17 18 18 17 17 17 17 16 16 16 16 16 16 16 15 15 15 15 15 15 15 14 14 14 14 13 13 13 13 12 12 12 12 12 12 12 12
12 11 13 15 15 15 16 16 16 16 16 16 16 16 17 16 16 16 16 16 16 16 16 16 16 15 15 15 15 15 15 14 14 14 14 14 13 13 13 12 12 12 12 11 11 11 11 12 12
12 11 13 14 14 14 14 14 14 14 14 15 15 15 15 15 15 15 16 15 15 15 15 15 15 15 15 15 15 14 14 14 14 14 14 13 13 13 12 12 12 11 11 11 11 11 11 11 11
12 12 13 13 13 13 13 13 13 13 14 14 14 14 14 14 14 15 15 15 15 15 15 15 15 15 15 14 14 14 14 14 14 14 13 13 13 12 12 12 11 11 11 11 11 11 11 10 11
11 11 12 12 12 12 12 13 13 13 13 13 13 13 14 14 14 14 14 15 15 15 15 15 15 14 14 14 14 14 14 14 13 13 13 13 13 12 12 12 11 11 11 11 11 10 10 10 10
11 11 11 11 11 11 12 12 12 13 13 13 13 13 13 13 14 14 14 14 15 14 14 14 14 14 14 14 14 14 14 13 13 13 13 13 13 12 12 11 11 11 11 11 10 10 10 10 10
10 9 10 11 11 12 12 11 12 13 13 13 13 13 13 13 13 14 14 14 14 14 14 14 14 14 14 14 14 13 13 13 13 13 13 13 12 12 12 11 11 11 11 10 10 10 10 10 10
9 9 9 12 12 13 11 10 12 13 13 13 13 13 13 13 13 14 13 13 14 14 14 14 13 13 13 13 13 13 13 13 13 13 12 12 12 12 12 11 11 11 10 10 10 10 10 10 10
9 9 10 11 12 12 11 10 12 12 13 13 13 13 13 13 13 13 13 13 13 13 13 13 13 13 13 13 13 13 13 13 13 13 12 12 12 12 12 11 11 11 10 10 10 10 10 10 10
9 9 9 10 11 11 10 10 11 12 12 12 12 12 12 12 13 13 13 13 13 13 13 13 13 13 13 13 13 13 13 12 12 12 12 12 12 12 11 11 11 11 10 10 10 10 10 10 10
9 8 8 9 11 10 9 10 10 11 12 12 12 12 12 12 12 12 12 12 12 12 12 12 12 12 12 12 12 12 12 12 12 12 12 12 12 12 11 11 11 10 10 10 10 10 10 10 9
9 8 8 9 11 10 9 9 10 11 11 12 12 12 12 12 12 12 12 12 12 12 12 11 12 12 12 12 12 12 12 12 12 12 12 12 12 11 11 11 11 10 10 10 10 10 9 9 9
8 8 8 8 9 9 8 8 10 11 12 12 12 12 12 11 11 11 11 11 11 11 11 11 11 11 11 11 11 11 11 11 11 11 12 12 12 11 11 11 11 10 10 10 10 10 9 9 9
7 9 9 8 7 6 8 6 8 10 11 11 11 11 11 11 10 11 11 10 10 11 11 11 10 11 11 11 11 11 11 11 11 11 11 11 11 11 11 11 11 10 10 10 10 10 10 10 9
8 9 8 7 6 6 7 6 8 10 10 11 11 11 11 10 10 10 10 10 10 10 10 10 10 10 10 11 11 11 11 11 11 11 11 11 11 11 11 11 11 10 10 10 10 10 10 10 10
8 8 7 7 6 5 6 6 7 9 10 10 10 11 11 10 10 9 9 9 9 10 10 9 10 10 10 10 10 10 10 10 10 11 11 11 11 11 11 11 11 11 10 10 10 10 10 10 10
7 5 4 4 4 5 8 8 8 10 10 10 10 10 10 9 9 9 9 9 9 9 9 9 9 9 9 10 10 10 10 10 10 11 11 11 11 11 11 11 10 10 11 10 10 10 10 10 10
6 5 4 3 4 6 7 7 9 10 10 10 10 10 10 9 9 8 8 8 8 8 9 9 9 9 9 9 10 10 10 10 10 10 11 11 11 11 11 11 11 10 10 10 10 10 10 10 10
6 6 6 4 4 4 6 7 9 10 9 9 9 9 9 9 8 8 8 8 8 8 8 8 9 9 9 9 9 9 10 10 10 10 10 11 11 11 11 11 11 10 10 10 10 10 10 10 10
7 6 5 4 3 4 5 7 7 8 8 9 8 8 8 8 8 8 8 8 8 8 8 8 8 9 9 9 9 9 10 10 10 10 10 10 11 11 11 11 10 10 10 10 10 10 10 10 10
6 5 5 4 4 3 4 5 8 8 8 8 8 8 8 8 7 7 7 8 8 8 8 8 8 8 8 8 9 9 9 10 10 10 10 10 10 10 10 10 10 10 10 10 10 10 10 10 10
6 5 4 3 2 3 3 5 8 8 8 8 7 8 8 8 7 7 7 7 7 7 7 7 7 8 8 8 8 8 9 9 9 10 10 10 10 10 10 10 10 10 10 10 10 10 10 10 10
Wind_Speed
11 11 8 4 4 7 12 10 10 7 6 3 4 5 6 7 4 2 4 3 7 10 15 21 20 20 20 20 20 20 21 21 20 19 19 19 19 18 18 18 18 18 17 18 18 18 18 18 17
11 8 5 4 6 11 11 12 13 10 6 3 3 5 7 7 5 5 5 5 7 9 13 19 20 20 20 20 20 21 21 21 20 19 19 19 19 19 18 18 18 18 18 18 18 18 18 17 16
11 9 5 5 9 12 8 3 4 6 5 3 4 5 6 5 4 2 6 6 6 6 11 18 22 21 20 20 20 21 21 21 20 20 20 20 20 19 18 18 18 18 18 18 18 18 17 16 16
5 4 5 9 18 16 13 10 7 7 5 4 4 5 5 4 2 3 6 6 5 5 8 17 23 22 21 20 20 21 22 22 21 20 20 20 19 19 18 18 18 18 18 18 18 17 17 16 15
4 4 8 14 20 17 14 13 12 11 9 7 7 8 8 4 3 4 4 4 3 4 6 15 22 22 21 21 21 21 22 22 22 21 21 20 19 19 18 18 19 19 18 18 18 17 17 16 14
4 5 9 16 19 15 13 12 11 11 11 9 9 11 9 5 2 2 2 1 1 3 5 12 20 21 21 21 21 22 22 22 22 22 21 20 20 20 19 19 19 19 18 18 18 17 16 15 13
6 7 13 17 17 15 12 10 10 9 11 9 8 11 8 6 3 2 2 1 1 2 3 8 14 18 20 20 21 22 22 22 22 22 22 21 20 20 20 20 19 18 18 18 17 17 16 14 13
5 6 13 14 16 15 10 9 9 10 11 9 9 9 7 4 4 4 3 2 2 3 4 7 11 13 14 16 19 21 22 22 23 22 22 22 21 21 20 19 19 19 18 18 17 17 15 14 12
4 8 13 12 12 12 11 11 11 11 12 12 11 12 8 6 5 4 4 3 3 4 6 7 9 11 12 14 17 18 20 22 22 21 23 22 18 18 18 19 19 19 19 18 18 17 15 14 11
6 10 13 11 12 13 14 14 12 10 14 14 13 11 8 7 6 6 6 6 6 6 7 7 8 9 10 12 13 13 15 17 18 18 20 18 17 16 17 20 20 19 18 18 18 17 16 13 10
7 11 13 14 14 15 16 15 13 14 16 15 14 12 10 10 9 9 9 8 9 8 8 7 8 8 9 8 9 8 10 12 15 18 19 16 15 14 15 14 16 17 17 15 16 15 12 11 10
10 14 15 15 15 16 17 15 14 16 18 14 15 13 12 12 12 12 11 9 8 8 9 8 8 8 9 8 8 9 8 9 10 15 18 14 9 10 11 10 11 12 12 12 12 9 9 10 11
13 14 16 15 15 16 18 17 17 18 17 16 16 16 15 14 13 13 12 11 10 10 10 9 9 9 9 8 8 9 9 10 11 13 16 15 11 11 11 10 11 11 12 11 8 7 7 7 8
9 13 15 16 18 17 19 19 17 18 15 16 16 15 14 15 14 13 12 12 11 10 10 9 10 10 9 8 8 9 10 10 12 11 15 18 14 12 11 10 9 9 12 12 9 7 7 5 5
12 14 15 16 16 12 13 16 16 15 13 14 14 13 14 14 14 13 13 12 12 11 10 10 10 10 10 10 9 8 9 11 11 11 15 18 17 14 12 11 10 9 13 12 9 7 6 5 5
10 10 9 9 9 9 9 15 13 11 12 14 13 12 12 14 14 12 12 11 10 9 10 10 10 10 10 9 9 7 9 11 11 12 13 17 19 17 13 11 10 11 11 8 6 7 5 5 5
6 8 12 13 8 9 10 17 14 13 14 14 13 13 13 13 13 11 11 10 10 9 9 10 10 10 10 10 8 8 8 9 11 12 12 15 18 19 13 11 10 12 9 7 7 6 6 6 5
9 12 15 15 11 14 16 19 17 14 14 14 13 13 13 12 12 10 10 9 8 8 8 8 9 10 10 8 7 6 7 7 9 11 12 16 16 18 15 11 13 12 9 8 8 8 6 6 6
13 15 18 18 15 15 17 20 18 16 15 15 13 11 11 11 10 9 9 8 8 7 7 8 8 8 8 8 8 8 7 7 8 10 14 16 17 18 15 12 13 12 10 10 10 7 8 6 5
14 16 18 16 12 14 17 22 20 18 17 15 12 10 9 9 9 8 8 7 8 8 7 8 8 8 8 7 8 8 8 7 7 9 12 16 17 17 15 15 13 12 10 11 10 9 6 5 6
14 13 14 16 17 12 16 16 15 12 13 12 10 7 6 9 9 8 7 6 5 7 7 7 8 9 8 8 7 7 7 6 6 9 11 13 17 17 15 16 14 13 12 11 11 10 9 8 7
13 11 14 15 13 8 7 10 12 13 11 8 6 4 4 6 7 7 6 6 6 6 6 7 9 9 9 8 8 10 10 9 8 9 10 12 16 17 16 16 15 14 12 12 12 10 8 9 8
9 12 14 15 14 14 13 10 9 8 8 4 3 4 5 5 6 6 6 6 5 4 4 6 8 9 9 9 9 10 9 8 7 9 11 12 14 16 17 16 14 15 12 13 13 11 11 8 8
10 10 13 12 8 8 10 8 7 5 5 4 4 4 4 4 5 5 5 5 5 4 4 6 7 9 9 9 10 10 10 10 10 11 12 12 11 13 16 16 14 13 13 14 13 12 13 10 8
5 5 4 3 4 7 7 6 6 4 4 4 4 4 3 4 4 4 4 5 5 4 5 7 7 8 9 10 11 11 11 11 11 12 12 12 11 11 16 15 15 13 12 13 13 12 13 12 11
5 4 4 4 5 7 8 7 5 4 3 4 4 4 3 4 4 5 4 4 4 4 4 6 7 7 8 10 10 10 11 10 9 11 11 12 12 12 15 15 15 14 13 14 13 12 11 11 11
4 5 6 6 8 8 7 7 7 5 4 4 5 5 4 5 6 6 5 4 4 4 4 4 5 6 8 9 9 9 10 10 10 11 12 11 11 11 15 15 14 14 15 14 15 11 12 12 11
8 5 3 3 5 7 8 8 6 4 5 7 7 7 6 6 6 7 5 5 4 3 4 4 5 6 6 7 8 8 10 10 9 10 13 12 13 12 15 16 16 15 15 15 14 12 12 13 11
7 7 6 5 5 5 7 6 3 6 7 9 9 7 6 6 6 7 6 5 5 3 3 3 4 4 4 6 7 7 9 9 9 9 12 12 12 14 15 16 17 16 16 15 14 14 14 14 12
9 8 7 6 7 6 7 9 5 6 6 7 8 8 7 6 6 6 6 6 5 5 4 3 4 4 4 5 5 7 7 8 9 9 11 12 13 13 14 15 16 16 16 15 16 16 16 16 15
Wind_Direction
292 259 243 242 240 233 241 240 251 266 271 314 344 323 308 286 287 95 143 101 99 130 147 162 164 166 165 164 161 157 155 154 152 150 148 144 141 138 135 132 129 127 125 122 118 114 110 107 105
287 256 239 235 235 237 242 234 245 261 275 345 332 296 288 291 310 96 118 88 104 131 146 164 166 168 168 167 164 160 158 157 155 154 152 149 145 142 139 135 132 129 126 122 119 116 112 110 107
274 256 236 228 230 234 248 261 262 271 284 293 283 279 267 270 304 81 105 99 104 131 149 161 166 171 172 172 169 164 162 160 159 157 155 152 149 145 142 138 134 131 127 124 121 118 116 113 111
261 227 239 239 241 242 255 272 291 293 285 271 266 271 257 258 347 58 88 91 100 129 148 158 166 173 175 175 173 169 165 163 161 159 156 153 150 147 144 141 136 133 130 127 124 121 119 116 115
249 232 232 239 246 253 265 277 285 286 279 278 268 261 270 303 57 67 69 82 114 140 148 159 168 175 178 178 176 173 169 167 163 160 157 154 152 148 145 142 139 137 134 131 127 125 122 119 119
241 232 237 243 249 251 254 265 273 271 272 272 276 271 267 281 335 55 60 94 143 153 156 159 171 175 180 181 178 175 171 169 165 161 158 155 152 149 146 144 143 141 138 136 133 130 127 124 123
249 248 247 256 265 267 270 288 291 292 288 284 288 279 270 278 312 29 9 289 178 155 166 164 173 178 179 180 180 178 174 171 166 163 159 156 154 152 150 148 147 145 143 140 138 135 131 129 127
265 262 254 252 259 264 276 284 291 296 291 300 296 274 271 300 338 343 320 287 216 186 190 183 176 178 178 179 179 178 176 173 169 164 158 154 153 153 151 149 150 149 147 144 141 138 135 132 132
272 249 249 253 268 281 300 300 303 306 293 288 284 286 300 312 316 310 301 283 241 207 199 195 182 179 176 177 181 177 176 174 168 162 155 151 152 151 150 148 151 151 149 147 144 141 138 135 139
222 245 254 266 280 291 296 296 296 291 284 282 285 289 292 292 280 265 258 249 238 222 211 200 189 183 180 180 176 176 176 173 169 164 160 160 155 154 151 150 152 152 151 149 147 144 143 143 150
237 250 272 280 288 295 294 294 294 284 275 275 279 283 290 291 281 261 251 242 237 227 218 209 198 188 182 181 177 176 174 173 171 168 169 161 149 147 144 149 150 151 151 148 146 150 162 163 161
257 263 276 283 289 290 288 287 284 275 275 279 280 284 279 278 275 264 252 248 239 234 224 211 200 193 188 182 184 180 176 176 174 172 171 160 154 152 153 154 158 159 159 151 158 169 174 162 161
265 269 276 282 283 281 283 277 277 273 275 278 275 272 268 263 265 265 261 247 240 232 228 215 204 198 194 186 185 183 180 180 176 175 173 160 157 158 158 159 163 163 158 158 168 174 165 160 166
279 286 284 284 280 277 275 275 270 267 269 271 267 265 267 264 258 258 258 251 239 229 223 216 207 201 195 192 188 184 183 182 175 175 172 162 161 162 161 161 164 162 160 166 173 171 158 160 152
286 284 279 265 261 262 273 270 260 267 271 272 268 266 268 268 260 254 252 249 240 230 219 214 208 205 197 193 193 186 183 178 177 176 173 167 164 165 164 161 164 161 162 167 169 162 152 148 147
269 268 269 268 259 265 263 269 272 283 279 275 270 267 266 267 262 256 255 255 249 234 218 211 211 207 200 193 194 188 184 180 177 175 176 172 166 165 164 161 164 161 163 164 162 154 147 145 150
244 268 282 294 284 296 280 281 284 283 279 275 272 267 263 266 260 257 253 255 253 242 221 208 203 202 201 195 193 191 187 184 178 174 176 175 168 166 163 161 163 160 162 162 162 154 151 153 155
299 301 296 295 295 297 289 285 288 282 276 272 273 268 262 264 261 261 258 252 253 246 227 210 198 199 201 192 186 186 183 185 182 176 174 175 171 167 163 161 163 162 162 163 161 156 154 154 154
291 288 287 288 293 291 287 287 289 284 275 267 262 263 265 267 270 259 255 250 247 240 226 213 203 200 197 189 183 183 183 185 186 179 174 174 171 168 165 163 164 164 166 167 164 158 157 157 146
282 282 285 290 298 300 289 284 283 275 266 262 257 256 258 266 273 264 255 246 238 235 223 217 208 202 200 195 185 184 182 185 191 181 178 174 172 171 171 165 166 165 165 168 169 158 158 165 155
281 280 289 298 307 291 287 281 275 274 265 260 256 253 262 269 271 264 253 248 239 234 222 224 213 205 204 197 188 186 181 181 193 186 179 178 172 171 172 170 167 168 169 172 172 167 162 166 170
285 292 299 299 301 291 292 293 284 281 271 253 251 260 263 276 280 270 257 251 245 240 226 226 215 209 204 191 193 191 194 193 200 188 181 181 177 172 171 172 171 171 172 172 174 170 166 165 173
280 302 296 287 280 282 272 268 275 265 271 272 278 274 270 268 276 279 276 252 249 244 229 231 221 212 206 192 193 196 202 196 193 185 183 184 180 175 173 172 176 175 176 174 174 171 171 175 175
294 302 291 271 261 267 257 247 279 266 282 296 310 313 297 295 285 278 283 267 256 242 229 236 221 213 205 199 199 199 198 195 191 188 185 183 179 179 177 174 177 178 178 177 176 175 175 179 180
283 309 312 303 237 248 278 261 258 279 305 305 306 308 299 299 306 298 295 293 273 250 232 228 224 217 206 202 205 204 200 198 197 191 186 182 183 183 182 180 180 180 180 178 175 177 179 180 181
255 238 247 278 274 297 306 265 266 305 333 330 327 321 314 315 315 300 291 275 274 272 251 228 224 225 212 204 208 207 203 202 199 194 186 187 189 187 180 181 181 182 179 180 178 179 180 181 184
263 238 246 269 281 277 260 263 276 303 346 354 355 353 344 330 317 306 306 288 272 267 267 254 235 232 224 211 207 211 206 204 199 197 190 187 187 185 181 181 183 183 182 182 179 182 182 182 187
238 272 279 252 277 272 269 272 282 335 357 355 346 344 341 339 325 316 316 311 285 268 261 255 253 237 238 226 213 216 211 202 201 201 194 187 187 185 183 182 185 186 185 183 182 182 182 183 186
225 237 241 248 254 273 284 276 307 344 343 341 334 331 335 330 330 332 321 316 305 284 253 250 262 257 250 244 229 225 214 202 203 210 195 187 185 185 183 185 185 186 187 185 184 185 183 184 184
234 234 228 243 257 254 273 273 289 313 322 329 330 330 327 323 325 329 327 326 322 311 282 258 255 257 255 256 245 238 220 202 204 208 200 189 187 187 186 184 184 185 187 186 188 187 184 184 185
Height
1490 1492 1495 1497 1498 1494 1486 1472 1464 1461 1459 1459 1461 1462 1462 1463 1465 1472 1470 1468 1467 1467 1468 1470 1472 1475 1478 1481 1484 1487 1490 1492 1495 1497 1500 1502 1504 1506 1508 1510 1512 1514 1515 1516 1518 1519 1519 1520 1521
1489 1493 1496 1495 1494 1490 1477 1466 1464 1460 1460 1460 1462 1463 1464 1463 1464 1465 1466 1466 1467 1467 1468 1469 1472 1475 1478 1481 1483 1486 1489 1492 1494 1497 1499 1502 1504 1506 1508 1510 1512 1513 1515 1516 1518 1519 1519 1520 1521
1489 1492 1494 1489 1485 1479 1469 1459 1458 1457 1459 1461 1462 1463 1464 1464 1464 1465 1465 1465 1467 1467 1468 1469 1472 1474 1477 1480 1483 1485 1488 1491 1494 1496 1499 1501 1504 1506 1508 1510 1511 1513 1515 1516 1517 1518 1519 1520 1522
1489 1491 1490 1485 1475 1466 1462 1459 1458 1458 1459 1461 1463 1463 1463 1464 1464 1464 1464 1465 1466 1467 1468 1469 1471 1474 1476 1479 1482 1485 1487 1490 1493 1496 1498 1501 1503 1505 1507 1509 1511 1513 1514 1516 1517 1518 1519 1521 1522
1488 1488 1486 1479 1470 1464 1460 1459 1458 1458 1460 1461 1462 1461 1461 1463 1462 1462 1463 1464 1465 1466 1467 1468 1470 1472 1475 1478 1481 1484 1486 1489 1492 1495 1497 1500 1502 1504 1506 1508 1510 1512 1514 1515 1517 1518 1520 1521 1523
1487 1483 1481 1473 1464 1459 1458 1458 1458 1458 1458 1459 1461 1459 1460 1461 1461 1461 1462 1463 1464 1465 1466 1467 1469 1471 1473 1476 1479 1482 1485 1488 1490 1493 1496 1499 1501 1503 1505 1507 1509 1512 1513 1515 1517 1518 1519 1521 1523
1485 1481 1475 1468 1463 1460 1458 1458 1457 1457 1457 1459 1459 1458 1458 1459 1459 1459 1460 1461 1462 1463 1464 1466 1467 1469 1471 1474 1477 1480 1483 1486 1489 1491 1495 1497 1500 1502 1504 1506 1509 1511 1513 1515 1516 1518 1519 1521 1523
1482 1480 1471 1466 1463 1459 1458 1457 1457 1458 1457 1458 1459 1457 1456 1456 1456 1456 1457 1458 1460 1461 1462 1464 1465 1467 1469 1471 1474 1477 1480 1483 1486 1489 1492 1495 1498 1500 1503 1505 1508 1510 1512 1514 1516 1518 1519 1521 1523
1481 1480 1470 1465 1463 1459 1458 1457 1457 1457 1457 1456 1457 1456 1455 1454 1454 1454 1454 1456 1457 1458 1459 1461 1462 1464 1466 1468 1471 1474 1477 1481 1484 1487 1490 1493 1496 1498 1501 1504 1507 1509 1511 1514 1515 1517 1519 1521 1523
1478 1475 1465 1463 1462 1460 1459 1458 1457 1457 1455 1454 1454 1453 1452 1452 1452 1452 1452 1452 1454 1455 1456 1458 1459 1460 1463 1465 1467 1470 1474 1477 1480 1483 1487 1490 1493 1496 1499 1502 1505 1508 1510 1513 1515 1517 1519 1521 1523
1473 1469 1465 1463 1462 1461 1458 1457 1456 1455 1452 1452 1451 1451 1450 1449 1449 1449 1449 1449 1450 1451 1452 1454 1455 1457 1458 1461 1463 1466 1469 1472 1476 1480 1483 1487 1490 1493 1496 1499 1503 1506 1509 1512 1514 1516 1518 1520 1523
1470 1466 1465 1463 1462 1460 1458 1455 1454 1452 1449 1450 1448 1447 1446 1445 1445 1445 1445 1445 1446 1446 1448 1449 1451 1453 1454 1456 1459 1461 1464 1467 1471 1475 1479 1483 1486 1489 1493 1496 1500 1503 1506 1510 1512 1515 1517 1520 1523
1467 1464 1463 1461 1459 1457 1455 1451 1450 1446 1445 1444 1443 1442 1442 1440 1440 1439 1440 1440 1441 1441 1442 1444 1446 1448 1450 1452 1454 1457 1460 1463 1466 1471 1474 1478 1482 1485 1489 1493 1497 1501 1504 1507 1511 1514 1517 1519 1522
1465 1462 1461 1459 1456 1453 1450 1446 1445 1439 1440 1439 1438 1436 1436 1435 1434 1434 1434 1434 1435 1436 1437 1439 1441 1443 1445 1447 1449 1451 1455 1458 1462 1465 1469 1473 1477 1481 1485 1490 1494 1498 1502 1505 1509 1512 1516 1518 1521
1464 1461 1457 1452 1450 1448 1446 1440 1438 1435 1435 1433 1432 1431 1430 1430 1429 1428 1428 1429 1429 1430 1431 1433 1436 1438 1440 1442 1445 1447 1449 1453 1456 1459 1464 1467 1472 1477 1481 1486 1490 1495 1499 1503 1507 1511 1514 1517 1520
1462 1459 1455 1445 1443 1441 1445 1437 1432 1431 1430 1428 1426 1425 1425 1424 1423 1422 1423 1423 1424 1424 1425 1427 1430 1432 1435 1437 1439 1442 1445 1448 1451 1455 1459 1463 1468 1472 1477 1481 1486 1491 1496 1500 1504 1508 1512 1515 1518
1457 1455 1449 1443 1439 1438 1439 1432 1428 1428 1425 1422 1420 1420 1419 1418 1417 1417 1417 1417 1418 1419 1420 1421 1424 1426 1429 1431 1434 1437 1440 1442 1446 1450 1453 1457 1462 1467 1472 1477 1482 1488 1492 1497 1501 1505 1509 1512 1515
1457 1454 1449 1445 1439 1438 1435 1428 1423 1422 1420 1417 1415 1413 1413 1412 1411 1411 1411 1412 1413 1414 1415 1416 1418 1420 1423 1426 1429 1432 1434 1437 1440 1443 1447 1452 1456 1462 1467 1473 1478 1483 1488 1493 1497 1502 1506 1509 1513
1455 1453 1449 1442 1437 1435 1431 1424 1419 1416 1414 1410 1408 1407 1406 1406 1405 1406 1406 1406 1407 1408 1409 1410 1412 1414 1417 1420 1422 1425 1428 1432 1435 1439 1442 1447 1450 1455 1462 1468 1473 1479 1484 1489 1493 1498 1502 1506 1510
1453 1451 1445 1438 1433 1432 1427 1420 1413 1409 1405 1403 1401 1400 1401 1401 1401 1401 1401 1401 1402 1403 1404 1405 1407 1409 1411 1414 1417 1420 1424 1427 1431 1434 1438 1441 1444 1451 1457 1462 1468 1474 1479 1485 1489 1493 1498 1502 1506
1450 1448 1443 1439 1434 1430 1426 1415 1406 1399 1397 1396 1395 1395 1396 1397 1397 1397 1397 1397 1397 1398 1399 1400 1401 1403 1406 1409 1413 1417 1420 1423 1426 1428 1432 1436 1441 1446 1451 1457 1463 1469 1474 1479 1484 1489 1493 1497 1502
1448 1442 1440 1438 1440 1436 1429 1425 1405 1398 1392 1390 1391 1391 1392 1394 1394 1393 1392 1392 1392 1393 1394 1395 1397 1398 1400 1404 1407 1409 1412 1415 1418 1423 1427 1432 1436 1441 1447 1453 1459 1464 1469 1474 1479 1484 1489 1492 1496
1444 1441 1440 1437 1437 1436 1427 1427 1406 1394 1391 1389 1388 1389 1389 1390 1390 1389 1388 1388 1388 1388 1389 1390 1391 1393 1395 1398 1401 1403 1407 1410 1415 1418 1421 1426 1431 1436 1442 1448 1454 1459 1464 1469 1474 1479 1484 1488 1492
1442 1441 1437 1432 1434 1439 1421 1421 1406 1394 1390 1388 1387 1386 1387 1387 1386 1386 1385 1384 1384 1384 1384 1385 1386 1388 1390 1393 1396 1399 1401 1405 1409 1413 1416 1420 1425 1431 1437 1443 1449 1454 1459 1464 1469 1474 1479 1483 1488
1444 1449 1451 1445 1440 1431 1409 1408 1401 1390 1387 1386 1385 1385 1385 1385 1384 1383 1382 1381 1380 1379 1379 1381 1382 1383 1385 1388 1391 1394 1396 1400 1403 1407 1410 1415 1419 1425 1430 1437 1443 1449 1454 1459 1464 1469 1474 1478 1483
1444 1447 1456 1454 1440 1422 1412 1407 1395 1386 1384 1383 1383 1383 1382 1382 1381 1380 1379 1378 1377 1376 1376 1376 1377 1379 1381 1383 1386 1389 1393 1396 1399 1402 1406 1410 1415 1419 1425 1431 1437 1443 1449 1454 1459 1464 1469 1474 1478
1441 1442 1440 1445 1439 1434 1417 1400 1392 1385 1383 1383 1383 1382 1381 1381 1380 1378 1377 1375 1374 1373 1372 1373 1374 1375 1377 1379 1381 1384 1387 1390 1394 1398 1402 1406 1411 1415 1421 1426 1432 1438 1443 1448 1453 1458 1463 1468 1473
1437 1437 1442 1445 1445 1433 1413 1402 1396 1388 1386 1384 1383 1381 1380 1379 1378 1377 1375 1373 1372 1371 1370 1370 1371 1372 1373 1375 1377 1379 1381 1384 1389 1393 1396 1400 1405 1410 1415 1420 1427 1433 1438 1443 1447 1452 1458 1463 1468
1436 1437 1437 1439 1437 1435 1424 1407 1388 1388 1386 1386 1384 1382 1380 1378 1377 1375 1373 1372 1370 1368 1368 1367 1368 1368 1369 1371 1373 1375 1377 1379 1383 1387 1391 1396 1401 1405 1410 1416 1421 1427 1432 1436 1441 1446 1452 1457 1462
1428 1430 1434 1442 1438 1430 1425 1408 1389 1388 1386 1386 1384 1382 1379 1377 1376 1374 1372 1370 1369 1367 1366 1365 1365 1365 1366 1366 1368 1370 1372 1375 1378 1382 1386 1391 1396 1400 1405 1411 1415 1421 1426 1431 1435 1440 1446 1450 1455